DW8102 Weather Reports


Display with metric or nautical units.
time (UTC)temp
F
wind
direction
speed
MPH
gust
MPH
rain 1hr
in
rain 24hr
in
rain mn
in
humidity
%
barometer
mb
20260905134526 61 285 1.0 4.0 0.00 0.43 0.00 75 1000.5
20260905133015 61 278 0.0 3.0 0.00 0.43 0.00 73 1000.4
20260905131514 62 262 0.0 3.0 0.00 0.43 0.00 71 1000.4
20260905130013 62 281 0.0 2.0 0.00 0.43 0.00 70 1000.3
20260905124515 62 277 0.0 2.0 0.00 0.43 0.00 71 1000.2
20260905123031 62 281 0.0 3.0 0.00 0.43 0.00 73 1000.1
20260905121508 61 250 0.0 1.0 0.00 0.43 0.00 76 1000.1
20260905120004 60 232 1.0 3.0 0.00 0.43 0.00 77 1000.1
20260905114600 59 285 1.0 3.0 0.00 0.43 0.00 80 1000.0
20260905113106 58 264 0.0 3.0 0.00 0.43 0.00 82 1000.0
20260905111600 57 266 2.0 5.0 0.00 0.43 0.43 84 1000.0
20260905110055 57 277 2.0 4.0 0.00 0.43 0.43 85 999.8
20260905104554 57 278 1.0 4.0 0.00 0.43 0.43 85 999.7
20260905103059 57 281 1.0 4.0 0.00 0.43 0.43 88 999.5
20260905101553 56 288 1.0 3.0 0.00 0.43 0.43 89 999.4
20260905100057 56 252 1.0 2.0 0.00 0.43 0.43 89 999.3
20260905094549 56 281 0.0 3.0 0.00 0.43 0.43 91 999.1
20260905093048 55 271 0.0 2.0 0.00 0.43 0.43 92 999.0
20260905091553 55 283 0.0 3.0 0.00 0.43 0.43 92 998.8
20260905090046 55 322 0.0 2.0 0.00 0.43 0.43 93 998.7
20260905084558 55 285 0.0 3.0 0.00 0.43 0.43 94 998.6
20260905083049 54 280 0.0 2.0 0.00 0.43 0.43 94 998.5
20260905081544 54 275 1.0 3.0 0.00 0.43 0.43 94 998.4
20260905080109 54 283 0.0 2.0 0.00 0.43 0.43 95 998.2
20260905074540 54 282 0.0 2.0 0.00 0.43 0.43 94 998.1
20260905073038 54 281 0.0 2.0 0.00 0.43 0.43 94 997.9
20260905071538 54 308 0.0 2.0 0.00 0.43 0.43 95 997.7
20260905070048 53 308 0.0 1.0 0.00 0.43 0.43 95 997.5
20260905064546 53 281 0.0 2.0 0.00 0.43 0.43 95 997.5
20260905063041 53 319 0.0 0.0 0.00 0.43 0.43 95 997.3
20260905061539 53 319 0.0 1.0 0.00 0.43 0.43 95 997.1
20260905060047 53 322 0.0 1.0 0.00 0.43 0.43 96 996.9
20260905054538 53 348 0.0 1.0 0.00 0.43 0.43 96 996.8
20260905053035 53 354 0.0 1.0 0.00 0.43 0.43 96 996.6
20260905051549 53 359 0.0 2.0 0.00 0.43 0.43 96 996.5
20260905050032 0 0.0 0.0 0.00 0.43 0.43 996.4
20260905044537 0 0.0 0.0 0.00 0.43 0.43 996.2
20260905043027 0 0.0 0.0 0.00 0.43 0.43 996.1
20260905041522 0 0.0 0.0 0.00 0.43 0.43 996.0
20260905040023 0 0.0 0.0 0.00 0.43 0.43 996.0
20260905034516 52 332 0.0 1.0 0.00 0.43 0.43 96 995.9
20260905033014 52 322 0.0 1.0 0.00 0.43 0.43 96 995.8
20260905031521 53 334 0.0 2.0 0.00 0.43 0.43 96 995.7
20260905030016 53 333 0.0 1.0 0.00 0.43 0.43 96 995.5
20260905024515 53 343 0.0 3.0 0.00 0.43 0.43 96 995.5
20260905023017 53 338 0.0 1.0 0.00 0.43 0.43 96 995.4
20260905021525 53 347 0.0 1.0 0.00 0.43 0.43 96 995.3
20260905020012 53 349 0.0 2.0 0.00 0.43 0.43 96 995.2
20260905014510 53 335 0.0 1.0 0.00 0.43 0.43 96 995.2
20260905013009 53 354 0.0 1.0 0.00 0.43 0.43 96 995.1
20260905011509 52 360 0.0 2.0 0.00 0.43 0.43 96 995.0
20260905010008 52 342 0.0 1.0 0.00 0.43 0.43 96 994.9
20260905004511 52 347 0.0 2.0 0.00 0.43 0.43 96 994.9
20260905003011 52 343 0.0 3.0 0.00 0.43 0.43 96 994.8
20260905001507 52 342 1.0 2.0 0.00 0.43 0.43 96 994.8
20260905000005 52 348 0.0 1.0 0.00 0.43 0.43 96 994.7
20260904234504 53 341 0.0 2.0 0.00 0.43 0.43 96 994.8
20260904233023 52 351 1.0 3.0 0.00 0.43 0.43 96 994.8
20260904231508 52 355 0.0 3.0 0.00 0.43 0.43 96 994.8
20260904230014 53 344 0.0 2.0 0.00 0.43 0.43 96 994.8
20260904224503 53 18 0.0 1.0 0.00 0.43 0.43 96 994.8
20260904223101 53 10 1.0 3.0 0.00 0.43 0.43 96 994.8
20260904221559 53 345 0.0 4.0 0.00 0.43 0.43 96 994.8
20260904220108 53 354 0.0 4.0 0.00 0.43 0.43 96 994.7
20260904214558 52 323 0.0 0.0 0.00 0.00 0.43 96 994.6
20260904213057 52 71 0.0 1.0 0.01 0.43 0.43 96 994.6
20260904211558 52 82 0.0 2.0 0.03 0.43 0.43 96 994.5
20260904210059 51 88 0.0 3.0 0.05 0.43 0.43 96 994.5
20260904204553 51 53 0.0 1.0 0.06 0.43 0.43 96 994.5
20260904203053 51 76 0.0 1.0 0.09 0.42 0.42 96 994.7
20260904201611 51 73 0.0 2.0 0.08 0.40 0.40 95 994.7
20260904200052 51 70 0.0 4.0 0.07 0.38 0.38 95 994.8
20260904194552 51 72 0.0 2.0 0.06 0.37 0.37 95 994.8
20260904193052 51 45 0.0 5.0 0.05 0.34 0.34 95 994.9
20260904191650 51 65 0.0 3.0 0.09 0.32 0.32 95 994.9
20260904190048 52 132 0.0 1.0 0.12 0.31 0.31 95 994.9
20260904184547 52 161 0.0 1.0 0.13 0.31 0.31 95 995.0
20260904183050 52 94 0.0 0.0 0.13 0.30 0.30 94 995.1
20260904181545 52 127 0.0 3.0 0.09 0.26 0.26 94 995.2
20260904180056 52 105 0.0 0.0 0.02 0.20 0.20 93 995.3
20260904174546 52 106 0.0 0.0 0.01 0.18 0.18 93 995.4
20260904173105 52 104 0.0 0.0 0.00 0.17 0.17 93 995.3
20260904171552 52 129 0.0 0.0 0.00 0.17 0.17 93 995.2
20260904170043 52 128 0.0 1.0 0.02 0.17 0.17 93 995.2
20260904164539 52 131 0.0 0.0 0.06 0.17 0.17 93 995.4
20260904163042 52 131 0.0 0.0 0.09 0.17 0.17 93 995.5
20260904161535 52 132 0.0 0.0 0.10 0.17 0.17 92 995.6
20260904160036 52 133 0.0 0.0 0.12 0.16 0.16 92 995.4
20260904154530 52 145 0.0 0.0 0.09 0.12 0.12 91 995.8
20260904153034 53 149 0.0 0.0 0.06 0.09 0.09 90 996.1
20260904151525 54 150 0.0 0.0 0.06 0.07 0.07 90 996.3
20260904150036 55 182 0.0 0.0 0.04 0.05 0.05 89 996.3
20260904144518 56 198 0.0 1.0 0.03 0.03 0.03 89 996.4
20260904143029 56 133 0.0 1.0 0.02 0.02 0.02 88 996.5
20260904141516 57 167 0.0 0.0 0.02 0.02 0.02 85 996.4
20260904140012 58 167 0.0 0.0 0.01 0.01 0.01 83 996.5